• Processing (Info)

  • MPEC 2014-W85 : 2014 WX200

    The following Minor Planet Electronic Circular may be linked-to from your own Web pages, but must not otherwise be redistributed electronically.

    A form allowing access to any MPEC is at the bottom of this page.


    Read MPEC 2014-W84 Read MPEC 2014-W86


    M.P.E.C. 2014-W85                                Issued 2014 Nov. 24, 14:09 UT
    
         The Minor Planet Electronic Circulars contain information on unusual
             minor planets and routine data on comets.  They are published
       on behalf of Commission 20 of the International Astronomical Union by the
              Minor Planet Center, Smithsonian Astrophysical Observatory,
                              Cambridge, MA 02138, U.S.A.
    
                 Prepared using the Tamkin Foundation Computer Network
    
                                  MPC@CFA.HARVARD.EDU
                URL https://www.minorplanetcenter.net/    ISSN 1523-6714
    
                                      2014 WX200
    
    Observations:
         K14WK0X* C2014 11 20.52028 05 18 51.530+03 53 10.26         21.3 wLEW085F51
         K14WK0X  C2014 11 20.53359 05 18 51.949+03 53 18.67         21.1 wLEW085F51
         K14WK0X  C2014 11 20.54685 05 18 52.374+03 53 26.99         21.0 wLEW085F51
         K14WK0X  C2014 11 20.56021 05 18 52.807+03 53 35.29         20.9 wLEW085F51
         K14WK0X  C2014 11 21.44446405 19 28.83 +04 03 07.7          20.6 RtEW085H01
         K14WK0X  C2014 11 21.44820305 19 28.95 +04 03 10.1          20.5 RtEW085H01
         K14WK0X  C2014 11 21.46256205 19 29.43 +04 03 19.7          20.2 RtEW085H01
         K14WK0X  C2014 11 21.47098405 19 29.71 +04 03 25.3          20.3 RtEW085H01
         K14WK0X _C2014 11 21.50957705 19 31.971+04 03 57.48         20.6 RtEW085568
         K14WK0X _C2014 11 21.51083005 19 32.010+04 03 58.35         20.7 RtEW085568
         K14WK0X _C2014 11 21.51208305 19 32.047+04 03 59.20         20.5 RtEW085568
         K14WK0X KC2014 11 23.36686 05 20 44.74 +04 26 21.0          20.9 RoEW085291
         K14WK0X KC2014 11 23.38897 05 20 45.38 +04 26 38.1                oEW085291
         K14WK0X KC2014 11 23.41381 05 20 46.11 +04 26 57.3          20.9 RoEW085291
         K14WK0X KC2014 11 24.46216 05 21 24.83 +04 41 01.2                oEW085291
         K14WK0X KC2014 11 24.46511 05 21 24.94 +04 41 03.8          20.6 RoEW085291
         K14WK0X KC2014 11 24.46806 05 21 25.00 +04 41 06.1          20.4 RoEW085291
    
    Observer details:
    291 LPL/Spacewatch II.  Observer J. V. Scotti.  1.8-m f/2.7 reflector + CCD.
    568 Mauna Kea.  Observers R. J. Wainscoat, D. Woodworth.  Measurers M. Micheli,
        R. J. Wainscoat, B. Bolin.  3.6-m Canada-France-Hawaii Telescope + CCD.
    F51 Pan-STARRS 1, Haleakala.  Observers B. Gibson, T. Goggia, N. Primak,
        A. Schultz, M. Willman.  Measurers B. Bolin, K. Chambers, S. Chastel,
        L. Denneau, H. Flewelling, M. Huber, E. Magnier, E. Schunova, R. Wainscoat,
        C. Waters.  1.8-m Ritchey-Chretien + CCD.
    H01 Magdalena Ridge Observatory, Socorro.  Observer W. H. Ryan.  2.4-m f/8.9
        reflector + CCD.
    
    Orbital elements:
    2014 WX200                                               Earth MOID = 0.2204 AU
    Epoch 2014 Dec. 9.0 TT = JDT 2457000.5                  MPC
    M 349.75234              (2000.0)            P               Q
    n   0.30554039     Peri.   12.24175     -0.28867278     -0.94226420
    a   2.1831838      Node    94.72159     +0.86343401     -0.33280800
    e   0.4498127      Incl.    9.80537     +0.41370247     +0.03710811
    P   3.23           H   21.6           G   0.15           U   6
    Residuals in seconds of arc
    141120 F51  0.1+  0.0     141121 H01  0.1+  0.1-    141123 291  0.1-  0.1+
    141120 F51  0.0   0.1+    141121 H01  0.0   0.1-    141123 291  0.1+  0.1+
    141120 F51  0.1-  0.0     141121 568  0.0   0.1-    141124 291  0.1-  0.1-
    141120 F51  0.1-  0.0     141121 568  0.0   0.1-    141124 291  0.3+  0.1+
    141121 H01  0.1+  0.0     141121 568  0.0   0.1-    141124 291  0.1-  0.1-
    141121 H01  0.0   0.1-    141123 291  0.1-  0.1+
    
    Ephemeris:
    2014 WX200               a,e,i = 2.18, 0.45, 10                  q = 1.2012
    Date    TT    R. A. (2000) Decl.     Delta      r     Elong.  Phase     V
    2014 10 25    04 53 03.5 +02 29 43   0.5522  1.4404   135.3    29.1    22.4
    ...
    2014 11 09    05 09 27.2 +02 37 51   0.4341  1.3664   144.2    25.1    21.6
    ...
    2014 11 17    05 16 17.9 +03 21 05   0.3809  1.3307   149.3    22.3    21.2
    ...
    2014 11 23    05 20 30.8 +04 21 51   0.3458  1.3061   153.4    19.8    20.9
    2014 11 24    05 21 08.6 +04 34 53   0.3403  1.3022   154.1    19.3    20.8
    2014 11 25    05 21 45.3 +04 48 50   0.3350  1.2983   154.9    18.8    20.8
    ...
    2014 12 01    05 25 05.3 +06 33 13   0.3054  1.2765   159.3    15.8    20.4
    ...
    2014 12 09    05 28 56.2 +09 54 27   0.2730  1.2512   165.6    11.3    20.0
    ...
    2014 12 24    05 36 45.0 +19 31 27   0.2352  1.2168   171.7     6.7    19.4
    
    A. U. Tomatic                (C) Copyright 2014 MPC           M.P.E.C. 2014-W85
    

    Read MPEC 2014-W84 Read MPEC 2014-W86


    MPEC number:

    Enter an MPEC number in one of the following forms:

    • 1997-B01 (the full form)
    • J97B01 (the packed version of the full form)
    • B01 (the abbreviated form)